Flag for U.S.A. Weather past 2 weeks in Inglewood, California, U.S.A.

Now
51 °F

Clear.


Feels Like: 51 °F
Forecast: 43 / 61 °F
Wind: 3 mph from Northwest

Location: Hawthorne Municipal Airport

Current Time: Dec 27, 2014 at 12:02:46 AM

Latest Report: Dec 26, 2014 at 10:53 PM


Visibility: 10 mi

Pressure: 30.21 "Hg

Humidity: 38%

Dew point: 26 °F

Location of InglewoodLocation

Historic Weather in Inglewood — Graph

°F

Inglewood temperature yesterday

Maximum temperature yesterday: 63 °F (at 1:53 PM)
Minimum temperature yesterday: 44 °F (at 6:53 AM)
Average temperature yesterday: 54 °F

Past Weeks' High & Low Weather Summary

 TemperatureHumidityPressure
High83 °F (Dec 23, 12:53 PM)93% (Dec 12, 4:53 AM)30.24 "Hg (Dec 12, 4:53 AM)
Low44 °F (Dec 26, 6:53 AM)12% (Dec 26, 12:53 PM)29.79 "Hg (Dec 25, 12:53 AM)
Average59 °F64%30.05 "Hg
* Reported Dec 11 10:53 PM — Dec 26 10:53 PM, Inglewood, Weather by CustomWeather, © 2014

Note: Actual official high and low records may vary slightly from our data, if they occured in-between our weather recording intervals... More about our weather records

Advertising

Inglewood weather history for previous 24 hours

 ConditionsComfort  
Time TempWeatherWind HumidityBarometerVisibility
10:53 PM
Dec 26
51 °FClear.3 mph38%30.21 "Hg10 mi
9:53 PM52 °FClear.No wind35%30.19 "Hg10 mi
8:53 PM54 °FClear.No wind38%30.17 "Hg10 mi
7:53 PM55 °FClear.No wind30%30.14 "Hg10 mi
6:53 PM57 °FClear.No wind32%30.13 "Hg10 mi
5:53 PM59 °FClear.3 mph27%30.11 "Hg10 mi
4:53 PM60 °FClear.7 mph20%30.09 "Hg10 mi
3:53 PM62 °FSunny.8 mph18%30.07 "Hg10 mi
2:53 PM63 °FSunny.8 mph13%30.06 "Hg10 mi
1:53 PM63 °FSunny.3 mph13%30.05 "Hg10 mi
12:53 PM62 °FSunny.3 mph12%30.05 "Hg10 mi
11:53 AM61 °FSunny.No wind14%30.08 "Hg10 mi
10:53 AM59 °FSunny.5 mph17%30.10 "Hg10 mi
9:53 AM57 °FSunny.5 mph21%30.11 "Hg10 mi
8:53 AM51 °FSunny.No wind36%30.08 "Hg10 mi
7:53 AM47 °FSunny.No wind42%30.06 "Hg10 mi
6:53 AM44 °FClear.No wind43%30.04 "Hg10 mi
5:53 AM45 °FClear.No wind44%30.01 "Hg10 mi
4:53 AM48 °FClear.No wind36%29.99 "Hg10 mi
3:53 AM47 °FClear.No wind39%29.97 "Hg10 mi
2:53 AM48 °FClear.No wind39%29.96 "Hg10 mi
1:53 AM51 °FClear.No wind32%29.94 "Hg10 mi
12:53 AM52 °FClear.5 mph31%29.94 "Hg10 mi
Weather by CustomWeather, © 2014

See weather overviewHow to use our weather pages